Hourly Weather Roundup
Issued by NWS Central Illinois

Home | Current Version | Previous Version | Text Only | Print | Product List | Glossary On
Versions: 1 2 3 4 5 6 7 8 9 10 11 12 13 14 15 16 17 18 19 20 21 22 23 24 25 26 27 28 29 30 31 32 33 34 35 36 37 38 39 40 41 42 43 44 45 46 47 48 49 50
000
NZUS43 KILX 311810
HWRILX

AREA WEATHER ROUNDUP
NATIONAL WEATHER SERVICE, LINCOLN IL
100 PM CDT THU JUL 31 2014


CITY           SKY/WX    TMP DP  RH WIND       PRES   REMARKS
BLOOMINGTON    SUNNY     78  57  48 VRB3      30.11S
CHAMPAIGN      SUNNY     79  60  52 W6        30.10S HX  80
6HR MIN TEMP:  60; 6HR MAX TEMP:  80;

DECATUR        MOSUNNY   80  59  48 SW3       30.10S HX  81
6HR MIN TEMP:  60; 6HR MAX TEMP:  80;

FLORA          SUNNY     79  59  49 SW6       30.10S HX  80
6HR MIN TEMP:  57; 6HR MAX TEMP:  81;

GALESBURG      MOSUNNY   82  64  53 W7        30.09F HX  83
JACKSONVILLE   MOSUNNY   82  62  52 NW6       30.11S HX  82
6HR MIN TEMP:  61; 6HR MAX TEMP:  82;

LACON          MOSUNNY   80  58  46 W7        30.07S HX  81
6HR MIN TEMP:  60; 6HR MAX TEMP:  81;

LAWRENCEVILLE  PTSUNNY   80  62  54 NW7       30.10S HX  81
6HR MIN TEMP:  61; 6HR MAX TEMP:  82;

LITCHFIELD     MOSUNNY   80  60  48 NW5       30.10F HX  81
$$


CITY           SKY/WX    TMP DP  RH WIND       PRES   REMARKS
LINCOLN        MOSUNNY   83  61  46 NW3       30.06F HX  83
6HR MIN TEMP:  58; 6HR MAX TEMP:  83;

MACOMB         MOSUNNY   78  62  57 W7        30.11F HX  80
MATTOON        MOSUNNY   77  60  55 NW7       30.09F
6HR MIN TEMP:  64; 6HR MAX TEMP:  80;

MT CARMEL AP   MOSUNNY   81  63  54 SW6       30.10S HX  82
OLNEY-NOBLE AP CLOUDY    77  63  61 CALM      30.10S
PARIS          MOSUNNY   78  63  59 CALM      30.10F HX  80
6HR MIN TEMP:  60; 6HR MAX TEMP:  80;

PEORIA         MOSUNNY   83  60  45 W6        30.08F HX  83
6HR MIN TEMP:  62; 6HR MAX TEMP:  83;

PONTIAC        SUNNY     81  63  54 W8        30.08S HX  82
RANTOUL        SUNNY     81  58  45 W5        30.10F HX  81
6HR MIN TEMP:  61; 6HR MAX TEMP:  81;

ROBINSON       MOSUNNY   81  64  56 W6        30.11S HX  82
6HR MIN TEMP:  60; 6HR MAX TEMP:  82;

SPRINGFIELD    SUNNY     83  60  45 VRB6      30.10S HX  83
6HR MIN TEMP:  60; 6HR MAX TEMP:  83;

TAYLORVILLE    SUNNY     79  61  53 W3        30.10S HX  80
$$

...REGIONAL REPORTS...


CITY           SKY/WX    TMP DP  RH WIND       PRES   REMARKS
CHICAGO O`HARE MOSUNNY   81  53  37 W16G22    30.03S HX  80
KANKAKEE       SUNNY     79  62  57 W9        30.08S HX  80
MOLINE         MOSUNNY   82  62  50 W12       30.07F HX  83
MOUNT VERNON   PTSUNNY   84  63  48 S7        30.11S HX  85
PITTSFIELD     MOSUNNY   80  61  52 S3        30.11S HX  81
QUINCY         PTSUNNY   78  58  49 VRB5      30.10F
ROCKFORD       MOSUNNY   81  56  42 W14       30.06F HX  81
$$


CITY           SKY/WX    TMP DP  RH WIND       PRES   REMARKS
BURLINGTON     PTSUNNY   80  63  55 SW8       30.09S HX  81
CEDAR RAPIDS   MOSUNNY   79  60  52 W10       30.07F HX  80
DES MOINES     MOSUNNY   81  56  42 W8        30.08F HX  81
KIRKSVILLE     MOSUNNY   80  57  45 NW7       30.12S HX  80
OTTUMWA        MOSUNNY   78  60  53 W5        30.08F
ST LOUIS       PTSUNNY   84  59  42 VRB3      30.09F HX  84
$$


CITY           SKY/WX    TMP DP  RH WIND       PRES   REMARKS
TERRE HAUTE    PTSUNNY   81  58  45 VRB7      30.09F HX  81
EVANSVILLE     SUNNY     82  57  42 SW8       30.11S HX  82
INDIANAPOLIS   MOSUNNY   79  60  52 W10       30.09F HX  80
LAFAYETTE      SUNNY     79  57  46 W8        30.08S HX  80
MADISON        PTSUNNY   80  58  46 W9G18     30.03S HX  80
MILWAUKEE      MOSUNNY   81  58  45 NW14G21   30.01S HX  81
$$




USA.gov is the U.S. government's official web portal to all federal, state and local government web resources and services.